TimeEST,TemperatureF,Dew PointF,Humidity,Sea Level PressureIn,VisibilityMPH,Wind Direction,Wind SpeedMPH,Gust SpeedMPH,PrecipitationIn,Events,Conditions,WindDirDegrees,DateUTC
12:53 AM,27.0,25.0,92,30.08,5.0,Calm,Calm,-,N/A,,Scattered Clouds,0,2014-02-20 05:53:00
1:53 AM,28.9,26.1,89,30.09,4.0,South,8.1,-,N/A,,Mostly Cloudy,180,2014-02-20 06:53:00
2:48 AM,30.2,26.6,86,30.07,2.5,SSE,3.5,-,N/A,,Overcast,160,2014-02-20 07:48:00
2:53 AM,30.0,28.0,92,30.09,2.5,South,4.6,-,N/A,,Overcast,170,2014-02-20 07:53:00
3:53 AM,30.0,28.0,92,30.06,2.0,Calm,Calm,-,N/A,,Overcast,0,2014-02-20 08:53:00
4:49 AM,30.2,28.4,93,30.01,1.8,ENE,3.5,-,N/A,,Overcast,70,2014-02-20 09:49:00
4:53 AM,30.9,28.0,89,30.03,1.8,NE,3.5,-,N/A,,Overcast,50,2014-02-20 09:53:00
5:53 AM,30.9,28.0,89,30.01,1.5,East,3.5,-,N/A,,Overcast,90,2014-02-20 10:53:00
6:20 AM,30.2,28.4,93,29.98,2.0,East,4.6,-,N/A,,Overcast,80,2014-02-20 11:20:00
6:53 AM,30.0,28.0,92,29.99,2.0,Calm,Calm,-,N/A,,Overcast,0,2014-02-20 11:53:00
7:31 AM,30.2,26.6,86,29.98,1.5,Variable,3.5,-,N/A,,Overcast,0,2014-02-20 12:31:00
7:53 AM,30.9,27.0,85,29.97,1.5,East,5.8,-,N/A,,Overcast,80,2014-02-20 12:53:00
8:12 AM,32.0,26.6,80,29.96,3.0,ENE,5.8,-,N/A,,Overcast,60,2014-02-20 13:12:00
8:53 AM,32.0,28.0,85,29.96,3.0,East,6.9,-,N/A,,Overcast,80,2014-02-20 13:53:00
9:53 AM,34.0,28.0,79,29.92,3.0,ENE,8.1,-,N/A,,Haze,60,2014-02-20 14:53:00
10:40 AM,35.6,28.4,75,29.92,2.0,East,6.9,-,0.01,Snow,Light Snow,80,2014-02-20 15:40:00
10:45 AM,35.6,28.4,75,29.92,1.5,East,4.6,-,0.01,Snow-Thunderstorm,Light Thunderstorms and Snow,90,2014-02-20 15:45:00
10:53 AM,35.1,30.0,82,29.94,1.0,ENE,4.6,-,0.01,Snow-Thunderstorm,Light Thunderstorms and Snow,70,2014-02-20 15:53:00
11:00 AM,33.8,30.2,87,29.93,0.8,ENE,5.8,-,0.03,Snow-Thunderstorm,Light Thunderstorms and Snow,60,2014-02-20 16:00:00
11:18 AM,33.8,30.2,87,29.89,0.2,NE,6.9,-,0.11,Snow,Snow,50,2014-02-20 16:18:00
11:36 AM,33.8,32.0,93,29.87,0.5,NNE,9.2,-,0.21,Snow,Light Snow,30,2014-02-20 16:36:00
11:43 AM,33.8,30.2,87,29.85,0.8,NE,10.4,-,0.23,Snow-Thunderstorm,Light Thunderstorms and Snow,40,2014-02-20 16:43:00
11:53 AM,34.0,32.0,92,29.86,0.8,NE,9.2,-,0.27,Snow-Thunderstorm,Light Thunderstorms and Snow,50,2014-02-20 16:53:00
12:19 PM,33.8,32.0,93,29.81,1.5,NE,9.2,-,0.13,Rain-Snow,Light Rain,50,2014-02-20 17:19:00
12:53 PM,34.0,32.0,92,29.81,1.5,NE,10.4,-,0.22,Rain-Snow,Light Rain,50,2014-02-20 17:53:00
1:53 PM,35.1,32.0,89,29.76,1.5,East,11.5,-,0.08,Rain,Light Rain,80,2014-02-20 18:53:00
2:14 PM,33.8,32.0,93,29.73,3.0,ENE,12.7,20.7,0.01,Rain,Light Rain,70,2014-02-20 19:14:00
2:53 PM,34.0,32.0,92,29.74,3.0,East,9.2,18.4,0.01,Rain,Light Rain,90,2014-02-20 19:53:00
2:57 PM,33.8,32.0,93,29.72,1.8,East,13.8,18.4,0.00,Rain,Light Rain,90,2014-02-20 19:57:00
3:53 PM,35.1,33.1,92,29.72,1.5,East,8.1,-,0.00,Rain,Light Rain,80,2014-02-20 20:53:00
4:53 PM,36.0,34.0,93,29.69,1.5,East,5.8,-,0.00,Rain,Light Rain,80,2014-02-20 21:53:00
5:30 PM,35.6,33.8,93,29.65,3.0,ENE,5.8,-,0.02,Rain,Light Rain,70,2014-02-20 22:30:00
5:37 PM,35.6,35.6,100,29.64,1.5,East,8.1,-,0.02,Rain,Light Rain,80,2014-02-20 22:37:00
5:53 PM,36.0,35.1,97,29.65,1.5,East,9.2,-,0.04,Rain,Light Rain,80,2014-02-20 22:53:00
6:12 PM,37.4,35.6,93,29.62,1.5,East,5.8,-,0.01,Rain-Thunderstorm,Light Thunderstorms and Rain,90,2014-02-20 23:12:00
6:38 PM,35.6,35.6,100,29.60,1.5,East,10.4,16.1,0.10,Rain,Light Rain,80,2014-02-20 23:38:00
6:45 PM,35.6,35.6,100,29.59,3.0,ENE,9.2,16.1,0.10,Rain,Light Rain,70,2014-02-20 23:45:00
6:53 PM,37.0,35.1,93,29.61,3.0,ENE,9.2,-,0.10,Rain,Light Rain,70,2014-02-20 23:53:00
7:11 PM,37.4,35.6,93,29.58,3.0,East,8.1,-,0.00,,Overcast,80,2014-02-21 00:11:00
7:51 PM,37.4,35.6,93,29.57,1.5,ENE,6.9,-,0.01,Rain,Light Rain,60,2014-02-21 00:51:00
7:53 PM,37.0,35.1,93,29.58,1.5,ENE,8.1,-,0.01,Rain,Light Rain,60,2014-02-21 00:53:00
8:53 PM,37.0,35.1,93,29.54,1.5,ENE,4.6,-,0.00,,Overcast,60,2014-02-21 01:53:00
9:13 PM,37.4,35.6,93,29.50,1.5,ENE,5.8,-,N/A,,Overcast,60,2014-02-21 02:13:00
9:53 PM,37.0,36.0,96,29.49,1.5,NE,4.6,-,N/A,,Mostly Cloudy,50,2014-02-21 02:53:00
10:33 PM,39.2,37.4,93,29.45,1.5,ENE,4.6,-,N/A,Thunderstorm,Overcast,70,2014-02-21 03:33:00
10:53 PM,37.9,36.0,93,29.48,1.5,Calm,Calm,-,0.03,Rain-Thunderstorm,Thunderstorms and Rain,0,2014-02-21 03:53:00
11:29 PM,42.8,39.2,87,29.42,4.0,ESE,11.5,-,0.13,,Mostly Cloudy,120,2014-02-21 04:29:00
11:53 PM,45.0,43.0,93,29.42,5.0,SE,10.4,-,0.13,Rain,Light Rain,130,2014-02-21 04:53:00